[[{"header":{"parameterUnit":"m.s-1","parameterCategory":1,"la1":30.2992,"la2":30.254,"lo1":-89.0895,"lo2":-89.0443,"dy":0.0025,"dx":0.0025,"nx":19,"ny":19,"refTime":"2026-05-16T21:00:00:Z","depth":0,"parameterNumber":2,"parameterNumberName":"U-component_of_WINDS"},"data":[0,0,0,-4.2667,-4.2667,-4.2669,-4.2669,-4.2696,-4.2696,0,0,0,0,0,0,0,0,0,0,0,-4.268,-4.2681,-4.2667,-4.2667,-4.2669,-4.2669,-4.2696,-4.2696,0,0,0,0,0,0,0,0,0,0,0,-4.268,-4.268,-4.2681,-4.2667,-4.2669,-4.2669,-4.2696,-4.2686,0,0,0,0,0,0,0,0,0,0,-4.268,-4.2705,-4.268,-4.2681,-4.2667,-4.2669,-4.2669,-4.2685,-4.2686,-4.2705,0,-4.2725,0,-4.2712,-4.27,-4.27,0,0,0,-4.2657,-4.2704,-4.2692,-4.2681,-4.2667,-4.2669,-4.2665,-4.2685,-4.2687,-4.2708,-4.2725,-4.2726,-4.2712,-4.27,-4.27,-4.2844,-4.2845,0,0,-4.2656,-4.2688,-4.2691,-4.2694,-4.2695,-4.2665,-4.2665,-4.2686,-4.2708,-4.2725,-4.2726,-4.2713,-4.27,-4.2701,-4.2843,-4.2844,0,0,0,-4.2663,-4.2688,-4.2675,-4.2694,-4.2692,-4.2666,-4.2666,-4.2707,-4.27,-4.2726,-4.2713,-4.2701,-4.2701,-4.2841,-4.2843,-4.2929,0,0,0,-4.2663,-4.2692,-4.2676,-4.2695,-4.2692,-4.2699,-4.2687,-4.2699,-4.27,-4.2713,-4.2701,-4.2702,-4.284,-4.2842,-4.2924,-4.2963,0,0,0,-4.2675,-4.2693,-4.2698,-4.2696,-4.2698,-4.2698,-4.2692,-4.2698,-4.2692,-4.27,-4.2702,-4.2839,-4.2842,-4.2919,-4.2956,-4.3009,0,0,0,-4.2697,-4.2775,-4.27,-4.2782,-4.2699,-4.2752,-4.2692,-4.273,-4.2747,-4.2701,-4.284,-4.2843,-4.2918,-4.2951,-4.3004,-4.3057,-4.3083,0,0,-4.2812,-4.279,-4.2835,-4.2769,-4.2843,-4.275,-4.2837,-4.2823,-4.2796,-4.283,-4.2833,-4.2926,-4.2955,-4.3008,-4.3222,-4.3242,0,0,0,-4.2882,-4.2915,-4.2929,-4.2946,-4.2939,-4.2935,-4.2905,-4.29,-4.2928,-4.282,-4.296,-4.2977,-4.3006,-4.303,-4.3047,-4.307,-4.2856,-4.2856,-4.2856,-4.3087,-4.3049,-4.3122,-4.3085,-4.3104,-4.3074,-4.3085,-4.3074,-4.3029,-4.3064,-4.3072,-4.3206,-4.3235,-4.3248,-4.3273,-4.31,-4.31,-4.31,-4.3101,-4.3249,-4.3289,-4.3232,-4.3281,-4.3242,-4.3283,-4.3259,-4.3227,-4.326,-4.3196,-4.3221,-4.3151,-4.3272,-4.3291,-4.3107,-4.3106,-4.3105,-4.3104,-4.3104,-4.3376,-4.3388,-4.3383,-4.3406,-4.3429,-4.339,-4.3426,-4.3389,-4.3354,-4.3379,-4.3383,-4.3381,-4.3373,-4.3384,-4.3385,-4.3385,-4.3386,-4.3386,-4.3386,-4.3508,-4.3499,-4.3532,-4.3534,-4.3541,-4.3547,-4.3521,-4.3527,-4.3525,-4.3495,-4.3495,-4.3447,-4.3292,-4.3252,-4.3393,-4.3392,-4.3391,-4.339,-4.339,-4.368,-4.3636,-4.3688,-4.3696,-4.3695,-4.372,-4.3675,-4.3693,-4.3693,-4.3712,-4.3661,-4.3553,-4.3527,-4.3513,-4.3479,-4.367,-4.367,-4.367,-4.367,-4.3784,-4.3769,-4.3814,-4.383,-4.3841,-4.3806,-4.3867,-4.3849,-4.3823,-4.3822,-4.379,-4.3744,-4.3731,-4.3712,-4.3693,-4.3661,-4.3894,-4.3894,-4.3894,-4.3888,-4.3872,-4.393,-4.3904,-4.3902,-4.3901,-4.3957,-4.3978,-4.394,-4.3903,-4.3819,-4.381,-4.3735,-4.3713,-4.3669,-4.3641,-4.3581,0,0]},{"header":{"parameterUnit":"m.s-1","parameterCategory":1,"la1":30.2992,"la2":30.254,"lo1":-89.0895,"lo2":-89.0443,"dy":0.0025,"dx":0.0025,"nx":19,"ny":19,"refTime":"2026-05-16T21:00:00:Z","depth":0,"parameterNumber":3,"parameterNumberName":"V-component_of_WINDS"},"data":[0,0,0,4.0039,4.0039,4.0053,4.0053,4.0055,4.0054,0,0,0,0,0,0,0,0,0,0,0,4.0026,4.0026,4.0039,4.0039,4.0053,4.0053,4.0055,4.0054,0,0,0,0,0,0,0,0,0,0,0,4.0026,4.0026,4.0026,4.0039,4.0053,4.0053,4.0055,4.0049,0,0,0,0,0,0,0,0,0,0,4.0038,4.0019,4.0026,4.0026,4.0039,4.0053,4.0053,4.0049,4.005,4.0042,0,4.0034,0,4.0045,4.0054,4.0054,0,0,0,4.0044,4.0019,4.0031,4.0026,4.0039,4.0053,4.0048,4.005,4.005,4.0042,4.0034,4.0035,4.0045,4.0054,4.0054,3.9996,3.9996,0,0,4.0043,4.0024,4.003,4.003,4.003,4.0048,4.0048,4.005,4.004,4.0034,4.0035,4.0045,4.0054,4.0053,3.9997,3.9996,0,0,0,4.0037,4.0023,4.0035,4.003,4.0034,4.0048,4.0049,4.0039,4.0045,4.0035,4.0045,4.0053,4.0053,3.9998,3.9997,3.9954,0,0,0,4.0037,4.002,4.0034,4.0022,4.0034,4.0037,4.0038,4.0045,4.0046,4.0045,4.0053,4.0053,3.9998,3.9997,3.9956,3.9936,0,0,0,4.0028,4.0019,4.0018,4.0021,4.0027,4.0038,4.0044,4.0046,4.0051,4.0054,4.0053,3.9999,3.9997,3.9959,3.994,3.9917,0,0,0,4.0012,3.9977,4.0017,3.9983,4.0027,4.0012,4.0044,4.0033,4.003,4.0053,3.9998,3.9997,3.9959,3.9942,3.9919,3.9894,3.9882,0,0,3.9957,3.997,3.9952,3.9988,3.9961,4.0011,3.9978,3.9992,4.0008,3.9999,3.9998,3.9956,3.994,3.9917,3.982,3.981,0,0,0,3.9928,3.9914,3.9911,3.9909,3.9921,3.993,3.9952,3.9957,3.9951,4.0,3.9941,3.9933,3.992,3.9909,3.99,3.9891,3.9991,3.9991,3.9991,3.9821,3.9848,3.9819,3.9847,3.9844,3.9869,3.9869,3.988,3.9904,3.989,3.9887,3.9825,3.9812,3.9806,3.9795,3.9876,3.9876,3.9876,3.9876,3.9745,3.973,3.9767,3.9752,3.978,3.9766,3.9789,3.9807,3.9798,3.9829,3.9819,3.9851,3.9794,3.9786,3.9873,3.9873,3.9874,3.9874,3.9874,3.9678,3.9676,3.9686,3.9687,3.9684,3.9713,3.9705,3.9729,3.9751,3.9741,3.9741,3.9742,3.9746,3.974,3.974,3.9739,3.9739,3.9739,3.9739,3.9606,3.9618,3.9609,3.9621,3.9624,3.9631,3.9656,3.9659,3.9668,3.9686,3.9686,3.9712,3.9784,3.9802,3.9736,3.9736,3.9737,3.9737,3.9737,3.9518,3.9543,3.9528,3.9532,3.9549,3.9545,3.9577,3.9581,3.9587,3.9582,3.9611,3.966,3.9674,3.968,3.9695,3.9605,3.9605,3.9605,3.9605,3.9463,3.9473,3.9465,3.9469,3.9476,3.9504,3.9486,3.9506,3.9529,3.9534,3.9551,3.9572,3.9578,3.9588,3.9597,3.9611,3.9502,3.9502,3.9502,3.9411,3.9424,3.9404,3.9431,3.9446,3.9459,3.9443,3.9444,3.9475,3.9498,3.9538,3.9543,3.9578,3.9588,3.9611,3.9624,3.9651,0,0]}]]